NOAA 16 DEB, 42423

Orbit data source: Space-Track

NOAA 16 DEB, 42423 is space debris in SSO originally from a launch on Thu, 21 Sep 2000 UTC launched from the Air Force Western Test Range (AFWTR). Debris objects in space refer to the collection of defunct objects orbiting the Earth. Examples of debris include non-operational satellites, rocket bodies, and fragments generated from explosions, collisions, or faulty payload assembly.

Loading next visibility...
Identifier
42423, 2000-055TT
Orbit
SSO
Last TLE update
5 days ago
Origin
Manufacturer
Unknown
Mission
Spacecraft
Bus & Motor
Unknown
Mass
Unknown
Launch date (UTC)
2000-09-21 (25 years ago)
Launch vehicle
Unknown
Launch site
Air Force Western Test Range (AFWTR)
Object type
Payload
Rocket body
Debris
Shape & HBR
Unknown
Radar Cross Section
Small (<0.1 m²)

Expand to show TLE details & history

TLE from 5 days ago
0 NOAA 16 DEB
1 42423U 00055TT  25178.37545896  .00052180  00000-0  61161-2 0  9998
2 42423  98.9027 327.7186 0003832 348.3591  11.7531 14.84753019476877
Epoch: 2025-06-27T09:00Z
TLE epoch observation values (Epoch: 2025-06-27T09:00:39.654Z)
Latitude
-0.00002°
Longitude
-83.17585°
Altitude
614.733 km
Speed
7.553 km/s
True Right ascension
21h 50m 52s
True Declination
0° 00' 00"
Sunlit
Object was in full shadow at epoch
Visualization orbit readout
Latitude
21.53153°
Longitude
105.7215°
Altitude
618.197 km
Speed
7.55 km/s
Apparent Right ascension
07h 54m 02s
Apparent Declination
-10° 50' 27"
Sunlit
Object is in daylight
Visualization observer readout
Local Sidereal Time
16:13:37
Azimuth
285.028° WNW
Elevation
-33.479°
Doppler factor
1
Orbital elements
Apogee altitude
614.122 km
Perigee altitude
608.765 km
Semi-major axis
6,989.58 km
Eccentricity
0.00038
Inclination
98.9027°
RAAN
327.7186°
Arg. of periapsis
348.3591°
True anomaly
Unknown
Mean anomaly
11.7531°
Eccentric anomaly
Unknown
Mean motion
3.71421 °/min
Orbital period
96.93 mins
BSTAR
0.0061161
Loading maneuver chart data...
Loading SW <> Apogee altitude chart data...
Loading historical data...
Loading historical data...
Loading historical data...
Loading historical data...
Loading historical data...
Loading historical data...
Loading historical data...

NOAA 16 DEB Visibility forecast

Observer location: undefined°, undefined°

Span
Click to sort rows by Start time (UTC) header in descending order
Start Az.
Max El. time (UTC)
Max El. Az.
Max El.
End time (UTC)
End Az.
5 mins2025-07-02 08:50:11.924Z101.595° ESE2025-07-02 08:53:11.924Z55.819° ENE15.582°2025-07-02 08:55:11.924Z27.146° NE
7 mins2025-07-02 10:25:11.924Z193.583° SSW2025-07-02 10:28:11.924Z259.453° W34.285°2025-07-02 10:32:11.924Z331.864° NNW
6 mins2025-07-02 22:12:11.924Z49.985° ENE2025-07-02 22:15:11.924Z109.136° ESE23.4°2025-07-02 22:18:11.924Z154.062° SSE
5 mins2025-07-02 23:48:11.924Z335.582° NNW2025-07-02 23:50:11.924Z298.373° NW23.297°2025-07-02 23:53:11.924Z243.556° WSW
|